Regional Weather Roundup
Issued by NWS State College, PA

Home | Current Version | Previous Version | Text Only | Print | Product List | Glossary Off
Versions: 1 2 3 4 5 6 7 8 9 10 11 12 13 14 15 16 17 18 19 20 21 22 23 24 25 26 27 28 29 30 31 32 33 34 35 36 37 38 39 40 41 42 43 44 45 46 47 48 49 50

000
ASUS41 KCTP 041610
RWRCTP

REGIONAL WEATHER ROUNDUP
NATIONAL WEATHER SERVICE STATE COLLEGE PA
1200 PM EDT TUE AUG 04 2015

Note: "fair" indicates few or no clouds below 12,000 feet with no
significant weather and/or obstructions to visibility.

* = STATION THAT DOES NOT REPORT PRECIPITATION /E.G. RAIN...SNOW...ETC/
    THUNDER OR FOG.

PAZ002>004-007>009-013>016-020>023-029>032-041700-
WESTERN PENNSYLVANIA

CITY           SKY/WX    TMP DP  RH WIND       PRES   REMARKS
ERIE           SUNNY     76  53  44 W15G21    29.94S
MEADVILLE      MOSUNNY   76  53  44 W10       29.98R
FRANKLIN*      SUNNY     75  54  46 W13       29.99S
NEW CASTLE     FAIR      79  57  46 VRB7      29.99S
BEAVER COUNTY  SUNNY     75  57  53 W6        30.00S
BUTLER*        SUNNY     75  55  50 W10       30.01R
PITTSBURGH INT MOSUNNY   75  53  46 W7        29.99F
PITTSBURGH     SUNNY     74  51  44 MISG      29.99S
INDIANA*       MOSUNNY   73  59  60 W12       30.02S
LATROBE        MOSUNNY   75  55  50 W8        30.01S
WASHINGTON CO* NOT AVBL
$$

PAZ004>006-010>012-017>019-024>028-033>037-041-042-045-046-049>053-041700-
CENTRAL PENNSYLVANIA

CITY           SKY/WX    TMP DP  RH WIND       PRES   REMARKS
BRADFORD       PTSUNNY   69  57  65 W8        29.97S
DUBOIS         PTSUNNY   74  58  57 W10G18    29.98S
CLEARFIELD     PTSUNNY   72  57  59 W9        29.97S
JOHNSTOWN      SUNNY     71  53  52 W9G18     30.02S
ALTOONA        SUNNY     77  56  48 W12       29.99S
STATE COLLEGE  MOSUNNY   75  59  57 W14G23    29.96S
WILLIAMSPORT   MOSUNNY   81  60  48 W14G22    29.89F
SELINSGROVE    MOSUNNY   81  64  56 VRB5      29.91S
FT INDIANTOWN  SUNNY     84  58  41 W14G22    29.90F
CAPITAL CITY   MOSUNNY   86  57  37 W15G25    29.90F
HARRISBURG     MOSUNNY   85  59  41 W15       29.90S
YORK           SUNNY     82  66  58 SW9G20    29.92F
$$

PAZ038>040-043-044-047-048-054-055-060>062-067>071-041700-
EASTERN PENNSYLVANIA

CITY           SKY/WX    TMP DP  RH WIND       PRES   REMARKS
SCRANTON       MOSUNNY   79  63  57 SW14G23   29.89S
MOUNT POCONO   MOSUNNY   76  58  53 W17G24    29.94R
ALLENTOWN      MOSUNNY   81  66  60 W15       29.89S
QUAKERTOWN*    SUNNY     82  66  57 W7        29.91S
READING        MOSUNNY   84  65  52 W15       29.89S
LANCASTER      SUNNY     82  65  56 W15       29.91S
COATESVILLE    SUNNY     81  70  69 W10       29.93S
POTTSTOWN      SUNNY     82  68  62 SW9       29.91F
BLUE BELL      SUNNY     84  70  61 W8        29.89F
DOYLESTOWN     SUNNY     81  64  56 SW9       29.89S
WILLOW GROVE   NOT AVBL
NORTH PHILA    SUNNY     87  64  46 W15       29.89F
PHILADELPHIA   MOSUNNY   87  64  46 SW14      29.89F
$$



USA.gov is the U.S. government's official web portal to all federal, state and local government web resources and services.